CST,Max TemperatureF,Mean TemperatureF,Min TemperatureF,Max Dew PointF,MeanDew PointF,Min DewpointF,Max Humidity, Mean Humidity, Min Humidity, Max Sea Level PressureIn, Mean Sea Level PressureIn, Min Sea Level PressureIn, Max VisibilityMiles, Mean VisibilityMiles, Min VisibilityMiles, Max Wind SpeedMPH, Mean Wind SpeedMPH, Max Gust SpeedMPH,PrecipitationIn, CloudCover, Events, WindDirDegrees
2014-1-1,1,-5,-11,-2,-9,-20,100,77,54,30.39,30.34,30.29,10,5,1,10,7,,0.00,8,,239
2014-1-2,5,-8,-20,1,-8,-27,100,77,54,30.34,30.31,30.26,10,4,0,14,6,18,0.00,6,,248
2014-1-3,19,0,-20,12,-2,-29,100,72,60,30.26,29.77,29.36,10,6,0,24,9,40,0.00,6,,190
2014-1-4,23,13,1,19,7,-6,86,75,62,30.05,29.72,29.35,10,6,1,20,12,25,0.00,8,,267
2014-1-5,1,-6,-14,-6,-16,-22,92,72,54,30.19,30.11,30.01,10,5,1,16,13,20,0.00,7,,261
2014-1-6,-14,-20,-25,-18,-24,-29,100,73,58,30.00,29.94,29.88,10,3,1,24,17,31,0.00,6,,258
2014-1-7,-5,-12,-20,-9,-20,-29,100,72,49,30.09,29.96,29.86,10,9,2,21,15,24,0.00,3,,257
2014-1-8,3,-6,-14,-6,-15,-26,100,69,46,30.35,30.24,30.09,10,10,5,13,8,,0.00,2,,247
2014-1-9,17,0,-18,12,-4,-29,92,64,34,30.33,30.10,29.86,10,10,0,16,6,25,0.00,3,,190
2014-1-10,26,22,17,21,18,12,86,81,74,29.86,29.67,29.41,10,7,4,16,9,21,0.00,7,,169
2014-1-11,28,26,24,25,22,19,93,83,74,29.53,29.42,29.35,10,7,1,17,7,21,0.00,8,,273
2014-1-12,37,30,24,27,23,19,80,72,60,29.54,29.40,29.28,10,10,5,21,9,30,0.06,4,,201
2014-1-13,33,28,23,27,19,12,86,71,59,29.57,29.47,29.37,10,10,10,20,9,26,0.03,7,,280
2014-1-14,23,18,12,16,11,5,86,74,67,29.92,29.73,29.55,10,8,1,14,6,21,0.00,8,,2
2014-1-15,12,9,6,9,3,-4,85,72,52,29.93,29.73,29.28,10,6,1,23,10,33,0.00,7,,236
2014-1-16,26,18,10,25,11,3,93,80,73,29.63,29.38,29.22,10,4,1,22,12,28,0.00,8,,248
2014-1-17,19,10,0,16,8,-6,92,79,73,29.86,29.80,29.64,10,4,1,17,9,22,0.00,7,,332
2014-1-18,21,8,-5,16,3,-11,100,76,56,29.79,29.71,29.46,10,10,1,17,4,24,0.00,2,,221
2014-1-19,26,19,12,21,15,7,86,79,69,29.63,29.44,29.35,10,8,2,21,14,30,0.00,8,,314
2014-1-20,12,5,-2,7,-3,-11,85,74,60,30.25,29.98,29.62,10,4,0,15,7,20,0.00,8,,358
2014-1-21,5,-2,-9,-6,-10,-17,92,69,52,30.27,30.14,29.88,10,8,2,13,8,16,0.00,6,,252
2014-1-22,3,2,0,1,-5,-9,92,76,66,30.22,29.91,29.77,10,2,0,22,12,31,0.00,8,,304
2014-1-23,1,-3,-7,-2,-10,-20,92,70,54,30.47,30.33,29.99,10,6,0,15,10,24,0.00,5,,283
2014-1-24,24,10,-5,19,7,-15,93,76,52,29.97,29.47,29.22,10,5,0,25,16,36,0.01,8,,242
2014-1-25,14,7,0,1,-8,-15,78,63,51,29.63,29.55,29.34,10,5,0,25,18,36,0.00,7,,292
2014-1-26,5,2,-4,1,-6,-15,85,72,51,29.74,29.41,29.21,10,4,0,26,6,34,0.00,8,,270
2014-1-27,-4,-10,-16,-9,-18,-26,84,68,54,30.12,30.02,29.75,10,5,0,22,16,29,0.00,4,,274
2014-1-28,1,-8,-18,-6,-17,-26,84,66,51,30.11,29.97,29.79,10,9,0,23,16,31,0.00,3,,249
2014-1-29,24,10,-5,10,-4,-15,78,55,42,29.81,29.68,29.46,10,10,5,23,15,34,0.00,4,,217
2014-1-30,24,12,0,12,5,-9,86,69,54,29.82,29.58,29.45,10,8,0,16,11,31,0.00,7,,293
2014-1-31,8,-2,-11,-6,-11,-20,84,64,52,29.98,29.92,29.83,10,10,1,15,10,21,0.00,1,,232